Cosmos 1633 Rocket - Orbit

View from above orbital plane
View from above orbital plane
View from above satellite
View from above satellite

Ground track
Ground track

The orbit data is extracted from the following two-line orbital elements,

1 15593U 85020B   13139.85926696  .00000412  00000-0  47402-4 0  3482
2 15593 082.5394 215.5084 0010283 274.2240 205.4592 14.83337922523500
Epoch (UTC): 19 May 2013 20:37:20
Eccentricity: 0.0010283
inclination: 82.5394°
perigee height: 611 km
apogee height: 626 km
right ascension of ascending node: 215.5084°
argument of perigee: 274.2240°
revolutions per day: 14.83337922
mean anomaly at epoch: 205.4592°
orbit number at epoch: 52350

The dashed part of the orbit path shows where the satellite is in the earth's shadow,  

Developed and maintained by Chris Peat, Heavens-Above GmbH. Please read the updated FAQ before sending e-mail. Imprint. DLR